STARLINK-36834

Last updated on Fri Mar 27 2026 00:02:06 GMT+0000 (Coordinated Universal Time)

1 67959U 26037AD 26085.50002314 .00136224 00000+0 22937-2 0 9992 2 67959 43.0003 97.2299 0001414 276.5245 134.4001 15.50504775 5903
UTC large
Height (km)
Speed (km/s)
/
Latitude / Longitude
Inclination (degrees)
Orbital Period (minutes)
Azimuth
Elevation
Range (km)
Doppler Factor

Next 0 passes for location: London (51.5072 / 0.1276)

Sorry there are no passes over London.